Phoenix, AZ

1:02 PM MST on June 22, 2018 (GMT -0700)
Phoenix Sky Harbor International

Weather History for KPHX - November, 2007

Change the Weather History Date:

Tuesday, November 6, 2007

  Actual Average Record
Temperature  
Mean Temperature 79 °F 68 °F  
Max Temperature 94 °F 80 °F 94 °F (2007)
Min Temperature 64 °F 56 °F 34 °F (1922)
Degree Days  
Heating Degree Days 0 1  
Month to date heating degree days 0 6  
Since 1 July heating degree days 0 12  
Cooling Degree Days 14 4  
Month to date cooling degree days 68 31  
Year to date cooling degree days 5110 4567  
Growing Degree Days 28 (Base 50)    
Moisture  
Dew Point 33 °F    
Average Humidity 23    
Maximum Humidity 34    
Minimum Humidity 11    
Precipitation  
Precipitation 0.00 in 0.02 in 0.50 in (2000)
Month to date precipitation 0.00 0.12  
Year to date precipitation 2.71 6.62  
Snow  
Snow 0.00 in - - ()
Month to date snowfall 0.0  
Year to date snowfall 0.0  
Since 1 July snowfall 0.0  
Snow Depth 0.00 in    
Sea Level Pressure  
Sea Level Pressure 29.90 in    
Wind  
Wind Speed 4 mph (ESE)    
Max Wind Speed 10 mph    
Max Gust Speed 14 mph    
Visibility 10 miles    
Events      
T = Trace of Precipitation, MM = Missing Value Source: NWS Daily Summary

Daily Weather History Graph

Daily Weather History Graph

Search for Another Location

Airport or City:

Astronomy

Nov. 06, 2007 Rise Set
Actual Time 6:50 AM MST 5:31 PM MST
Civil Twilight 6:25 AM MST 5:57 PM MST
Nautical Twilight 5:55 AM MST 6:27 PM MST
Astronomical Twilight 5:26 AM MST 6:56 PM MST
Moon 3:55 AM MST (11/6) 3:42 PM MST (11/6)
Length of Visible Light 11h 32m
Length of Day
10h 40m
Waning Crescent, 9% of the Moon is Illuminated
Nov 6
Waning Crescent
Nov 9
New
Nov 17
First Quarter
Nov 24
Full
Dec 1
Last Quarter

Hourly Weather History & Observations

Time (MST) Temp. Dew Point Humidity Pressure Visibility Wind Dir Wind Speed Gust Speed Precip Events Conditions
12:51 AM 70.0 °F 37.9 °F 31% 29.88 in 10.0 mi WSW 3.5 mph - N/A   Scattered Clouds
1:51 AM 69.1 °F 39.9 °F 35% 29.88 in 10.0 mi East 5.8 mph - N/A   Scattered Clouds
2:51 AM 66.9 °F 37.9 °F 34% 29.88 in 10.0 mi East 5.8 mph - N/A   Scattered Clouds
3:51 AM 66.9 °F 35.1 °F 31% 29.88 in 10.0 mi ESE 8.1 mph - N/A   Scattered Clouds
4:51 AM 66.0 °F 33.1 °F 29% 29.89 in 10.0 mi East 8.1 mph - N/A   Scattered Clouds
5:51 AM 64.9 °F 34.0 °F 32% 29.89 in 10.0 mi East 6.9 mph - N/A   Scattered Clouds
6:51 AM 64.0 °F 33.1 °F 31% 29.91 in 10.0 mi ESE 3.5 mph - N/A   Scattered Clouds
7:51 AM 66.9 °F 32.0 °F 27% 29.94 in 10.0 mi ESE 4.6 mph - N/A   Scattered Clouds
8:51 AM 73.0 °F 30.9 °F 21% 29.95 in 10.0 mi East 5.8 mph - N/A   Scattered Clouds
9:51 AM 79.0 °F 30.9 °F 17% 29.95 in 10.0 mi ESE 4.6 mph - N/A   Partly Cloudy
10:51 AM 84.0 °F 28.9 °F 14% 29.94 in 10.0 mi East 5.8 mph - N/A   Partly Cloudy
11:51 AM 87.8 °F 28.4 °F 12% 29.97 in 10.0 mi Calm Calm - N/A   Partly Cloudy
12:51 PM 88.0 °F 28.9 °F 12% 29.89 in 10.0 mi Variable 3.5 mph - N/A   Partly Cloudy
1:51 PM 91.9 °F 30.0 °F 11% 29.86 in 10.0 mi ESE 6.9 mph - N/A   Partly Cloudy
2:51 PM 93.0 °F 30.0 °F 11% 29.85 in 10.0 mi SE 6.9 mph - N/A   Partly Cloudy
3:51 PM 93.0 °F 30.0 °F 11% 29.85 in 10.0 mi Calm Calm - N/A   Partly Cloudy
4:51 PM 93.0 °F 30.0 °F 11% 29.85 in 10.0 mi Calm Calm - N/A   Scattered Clouds
5:51 PM 89.1 °F 32.0 °F 13% 29.86 in 10.0 mi Calm Calm - N/A   Scattered Clouds
6:51 PM 84.9 °F 33.1 °F 16% 29.88 in 10.0 mi Calm Calm - N/A   Scattered Clouds
7:51 PM 81.0 °F 35.1 °F 19% 29.90 in 10.0 mi Calm Calm - N/A   Scattered Clouds
8:51 PM 82.0 °F 37.0 °F 20% 29.92 in 10.0 mi ESE 3.5 mph - N/A   Scattered Clouds
9:51 PM 82.0 °F 34.0 °F 18% 29.93 in 10.0 mi Calm Calm - N/A   Scattered Clouds
10:51 PM 75.9 °F 37.9 °F 25% 29.94 in 10.0 mi Calm Calm - N/A   Scattered Clouds
11:51 PM 73.9 °F 39.0 °F 28% 29.94 in 10.0 mi East 4.6 mph - N/A   Scattered Clouds